星链-34377 (STARLINK-34377)

导读

STARLINK-34377是美国于2025年6月4日发射的星链系列卫星,属于SpaceX打造的星链卫星互联网星座组网卫星。星链项目旨在为全球提供覆盖偏远地区的低延迟、高速宽带互联网服务,该卫星入轨后将逐步参与星座运行,进一步完善星链全球网络覆盖能力。

基本信息
目录编号:
64279
目录名称:
STARLINK-34377
国际标识:
2025-120Z
轨道中心:
EARTH
卫星名称:
星链-34377
卫星全名:
星链-34377 (STARLINK-34377)
卫星状态:
在轨 (已飞行457 天)
发射日期:
2025-06-04 UTC
国别 :
美国 (US)
星等 :
--
轨道信息
数据来源 国际轨道数据 AOE轨道数据
星历时间 2026-09-04T03:38:14+0800
10小时前
查看轨道信息
2026-09-03T08:00:00+0800
1天前
查看轨道信息
半长轴 6840.851km 6840.867km
偏心率 0.0001362 0.0001689
轨道倾角 53.160° 53.157°
近地点辐角 95.002° 85.091°
升交点赤经 3.955° 7.786°
平近点角 265.113° 72.804°
近地点 461.782km 461.574km
远地点 463.646km 463.886km
周期 93.848分钟 93.848分钟
每日圈数 15.343966 15.343912
详细信息
固有亮度:
5
最大亮度:
2.5
卫星平台:
Starlink V1.0
覆盖范围:
全球
运营商:
太空探索技术公司
运营商所在国:
美国
制造商(研发单位):
太空探索技术公司
制造商所在国:
美国
使用方式:
暂无
卫星简介
Starlink 计划是 SpaceX 推出的全球卫星互联网项目,通过发射低轨道卫星,为全球尤其是偏远地区提供高速、低延迟的互联网服务。自 2019 年起,Starlink 已部署数千颗卫星,旨在缩小全球数字鸿沟,推动互联网普及。该项目还为军事、航空等行业提供通信支持,带来广泛经济效益。
2D轨道图
3D轨道图
轨道高度分析图
轨道倾角分析图
轨道综合分析图
查看轨道综合分析图
交会数据列表
事件ID 空间交会对象 最接近时刻(TCA) 交会距离 交会风险概率(CRP) 交会风险指数(CRI) 操作
CDM_260829-155704-945006-427922
2026-08-29T
15:57:38+0000
1.537 km
极远距离
5.038525E-6 低风险 0.49
CDM_260829-082606-427906-937121
2026-08-29T
08:26:37+0000
2.410 km
极远距离
1.62815E-6 低风险 0.39
CDM_260905-151205-872506-427921
2026-09-05T
15:12:30+0000
2.545 km
极远距离
1.385631E-6 低风险 0.38
CDM_260903-070305-372306-427921
2026-09-03T
07:03:32+0000
2.967 km
极远距离
1.206193E-6 低风险 0.37
CDM_260903-102005-113506-427921
2026-09-03T
10:20:28+0000
2.982 km
极远距离
1.195146E-6 低风险 0.37
CDM_260904-022105-269706-427921
2026-09-04T
02:21:55+0000
2.746 km
极远距离
9.252494E-7 极低风险 0.34